Flag for Canada Weather past 2 weeks in Gander, Newfoundland and Labrador, Canada

Now
68 °F

Mostly cloudy.


Feels Like: 68 °F
Forecast: 63 / 73 °F
Wind: 15 mph from South

Location: Gander Int. Airport

Current Time: Jul 25, 2014 at 9:17:17 AM

Latest Report: Jul 25, 2014 at 8:30 AM


Visibility: 20 mi

Pressure: 29.78 "Hg

Humidity: 88%

Dew point: 64 °F

Location of GanderLocation

Historic Weather in Gander — Graph

°F

Gander temperature yesterday

Maximum temperature yesterday: 82 °F (at 2:30 PM)
Minimum temperature yesterday: 63 °F (at 5:30 AM)
Average temperature yesterday: 72 °F

Past Weeks' High & Low Weather Summary

 TemperatureHumidityPressure
High86 °F (Jul 10, 3:30 PM)100% (Jul 11, 3:30 AM)30.24 "Hg (Jul 11, 3:30 AM)
Low52 °F (Jul 20, 4:30 AM)24% (Jul 21, 3:30 PM)29.67 "Hg (Jul 23, 6:30 PM)
Average71 °F66%29.97 "Hg
* Reported Jul 10 7:30 AM — Jul 25 7:30 AM, Gander, Weather by CustomWeather, © 2014

Note: Actual official high and low records may vary slightly from our data, if they occured in-between our weather recording intervals... More about our weather records

Advertising

Gander weather history for previous 24 hours

 ConditionsComfort  
Time TempWeatherWind HumidityBarometerVisibility
7:30 AM
Jul 25
68 °FMostly cloudy.13 mph94%29.78 "Hg15 mi
6:30 AM68 °FSprinkles. Mostly cloudy.12 mph88%29.77 "Hg15 mi
5:30 AM68 °FPassing clouds.13 mph88%29.79 "Hg15 mi
4:30 AM68 °FPassing clouds.13 mph88%29.80 "Hg15 mi
3:30 AM68 °FMostly cloudy.10 mph88%29.79 "Hg12 mi
2:30 AM66 °FLow clouds.12 mph94%29.81 "Hg12 mi
1:30 AM66 °FMostly cloudy.13 mph94%29.83 "Hg12 mi
12:30 AM68 °FMostly cloudy.14 mph88%29.82 "Hg12 mi
11:30 PM
Jul 24
68 °FPassing clouds.13 mph88%29.82 "Hg12 mi
10:30 PM68 °FPassing clouds.16 mph88%29.82 "Hg12 mi
10:16 PM68 °FPartly cloudy.16 mph83%29.82 "Hg12 mi
9:30 PM68 °FPassing clouds.18 mph88%29.81 "Hg12 mi
8:30 PM72 °FBroken clouds.14 mph78%29.80 "Hg12 mi
7:30 PM73 °FPartly sunny.16 mph78%29.79 "Hg12 mi
6:30 PM77 °FScattered clouds.16 mph69%29.76 "Hg12 mi
5:30 PM77 °FBroken clouds.17 mph69%29.76 "Hg15 mi
4:30 PM81 °FScattered clouds.20 mph62%29.76 "Hg15 mi
3:30 PM81 °FScattered clouds.21 mph62%29.75 "Hg15 mi
2:30 PM82 °FScattered clouds.16 mph58%29.75 "Hg15 mi
1:30 PM81 °FPassing clouds.21 mph62%29.74 "Hg15 mi
12:30 PM81 °FPassing clouds.18 mph62%29.74 "Hg15 mi
11:30 AM79 °FPassing clouds.13 mph65%29.73 "Hg15 mi
10:30 AM77 °FPassing clouds.17 mph65%29.73 "Hg15 mi
9:30 AM73 °FPassing clouds.14 mph74%29.73 "Hg15 mi
Weather by CustomWeather, © 2014

See weather overviewHow to use our weather pages